Regional Weather Roundup
Issued by NWS Upton, NY

Current Version | Previous Version | Text Only | Print | Product List | Glossary Off
Versions: 1 2 3 4 5 6 7 8 9 10 11 12 13 14 15 16 17 18 19 20 21 22 23 24 25 26 27
000 ASUS41 KOKX 302308 RWROKX REGIONAL WEATHER ROUNDUP NATIONAL WEATHER SERVICE NEW YORK NY 700 PM EDT SUN APR 30 2017 NOTE: "FAIR" INDICATES FEW OR NO CLOUDS BELOW 12,000 FEET WITH NO SIGNIFICANT WEATHER AND/OR OBSTRUCTIONS TO VISIBILITY. NYZ071-072-176-178-NJZ106-104-010000- NEW YORK CITY METRO AREA CITY SKY/WX TMP DP RH WIND PRES REMARKS Central Park CLOUDY 55 41 59 VRB6 30.23F Wall St Helipt CLOUDY 55 42 61 E7G16 30.23R Bronx Bot Gard N/A 54 39 58 SE8 30.22F LaGuardia APRT CLOUDY 57 40 52 E12 30.21F Kennedy INTL CLOUDY 53 41 63 E17 30.24S Breezy Point N/A 50 N/A N/A E14G21 N/A Newark/Liberty CLOUDY 54 40 59 E14 30.21S Teterboro CLOUDY 56 41 57 E10 30.20F $$ NYZ177-179-078>081-010000- LONG ISLAND NEW YORK CITY SKY/WX TMP DP RH WIND PRES REMARKS Jones Beach N/A 48 N/A N/A E13G18 N/A Matinecock PT NOT AVBL Farmingdale CLOUDY 52 39 61 SE9 30.23S MacArthur/ISP CLOUDY 51 38 60 E12 30.24S Shirley CLOUDY 50 36 58 VRB5 30.25S Mt Sinai Harb N/A N/A N/A N/A SE3G9 N/A Westhampton CLOUDY 49 40 71 E8 30.28R East Hampton CLOUDY 47 40 76 E9 30.26R Montauk N/A 49 41 74 VRB3 30.27 $$ NYZ052-065-067-010000- HUDSON VALLEY CITY SKY/WX TMP DP RH WIND PRES REMARKS White Plains MOCLDY 52 41 66 E9 30.21F Larchmont Harb N/A 52 N/A N/A NE13 N/A Croton O-T Hud N/A 55 N/A N/A SE8G14 N/A Newburgh CLOUDY 55 45 67 SE6 30.19F Montgomery CLOUDY 55 43 63 CALM 30.17F Poughkeepsie CLOUDY 55 44 66 W5 30.17F Albany CLOUDY 51 37 58 NE5 30.16F $$ NJZ001-105-106-008-010-013-015-019>022-104-010000- NEW JERSEY CITY SKY/WX TMP DP RH WIND PRES REMARKS Newark/Liberty CLOUDY 54 40 59 E14 30.21S Teterboro CLOUDY 56 41 57 E10 30.20F Caldwell CLOUDY 56 40 55 SE8 30.21S Somerville CLOUDY 54 40 59 E6 30.19S Linden CLOUDY 53 38 58 SE12G18 30.22F Perth Amboy N/A 50 N/A N/A E20G28 N/A Sussex CLOUDY 58 40 51 VRB5 30.18S Andover N/A 55 37 50 MISG 30.17F Trenton CLOUDY 55 44 66 E13 30.17S Millville CLOUDY 60 54 80 NE14 30.11S Atlantic City CLOUDY 56 32 40 NE15G22 30.15R Wrightstown CLOUDY 52 47 84 NE13 30.16S Toms River LGT RAIN 51 48 89 NE10G18 30.21R FOG Belmar CLOUDY 51 44 77 E14G20 30.23R $$ PAZ047>061-062-071-010000- EASTERN PENNSYLVANIA CITY SKY/WX TMP DP RH WIND PRES REMARKS Philadelphia CLOUDY 60 49 66 E16 30.15R Allentown CLOUDY 58 43 57 E15 30.15F Scranton MOCLDY 63 44 50 CALM 30.10S $$ CTZ002-004>006-009-010-012-RIZ004-006-007-MAZ004-011-015-010000- SOUTHERN NEW ENGLAND IN CT CITY SKY/WX TMP DP RH WIND PRES REMARKS Bradley INTL CLOUDY 54 40 59 S14 30.21F Hartford CLOUDY 52 39 61 S13 30.22F Danbury CLOUDY 51 41 68 SE10 30.21F Wtrbury/Oxford CLOUDY 50 36 57 S13 30.21F Bridgeport CLOUDY 52 43 71 E10 30.24F Meriden CLOUDY 53 37 54 SE10 30.23F New Haven CLOUDY 50 38 63 E10 30.25F Chester CLOUDY 48 34 57 SE10 30.25S Groton CLOUDY 48 40 73 SE12 30.26S Wilimantic CLOUDY 54 39 57 S10 30.24S IN RI CITY SKY/WX TMP DP RH WIND PRES REMARKS Providence CLOUDY 50 40 68 S12 30.26S Block Island CLOUDY 47 41 80 E9 30.26F Westerly CLOUDY 49 40 71 E12 30.27F IN MA CITY SKY/WX TMP DP RH WIND PRES REMARKS Boston CLOUDY 47 37 68 SE10 30.26S Worcester CLOUDY 49 39 68 S9 30.21F Westfield CLOUDY 53 45 74 CALM 30.20F Provincetown CLOUDY 45 40 82 S5 30.29R Nantucket CLOUDY 45 37 73 E10 30.29R $$ ANZ330-335-338-340-345-350-353-355-010000- COASTAL MARINE OBSERVATIONS STATION/POSITION TIME SKY/WX TEMP WIND PRES VSBY WAVE AIR SEA DIR/SP/G HT/PER (UTC) (F) (DEG/KT/KT) (MB) (MI) (FT/S) NY HARB ENTRANCE 2150 50 49 90/ 17/ 21 1023.0 4/ 5 20 S FIRE ISLAND 2250 49 49 70/ 16/ 21 1022.8 6/ 6 GREAT SOUTH BAY 2230 51 60 90/ 14/ 17 N/A 23 SSW MONTAUK P 2150 47 47 1024.1 4/ 6 15 E BARNEGAT LI 2230 53 N/A 5/ 5 HUDSON CANYON 2150 51 49 100/ 17/ 21 1021.5 6/ 6 KINGS POINT 2230 54 53 150/ 3/ 6 1023.0 EXECUTION ROCKS NOT AVBL CENTRAL LI SOUND 2215 48 80/ 6/ 8 N/A 1/ 4 EASTERN LI SOUND NOT AVBL ROBBINS REEF 2230 53 110/ 15/ 19 1023.7 $$ >>>>>>>>>>>>>>>>>>>>>>>>>>>> KEY <<<<<<<<<<<<<<<<<<<<<<<<<<< > < > SKY/WX - Sky Condition/Present Weather < > TMP - Temperature in Fahrenheit < > DP - Dew Point in Fahrenheit < > RH - Relative Humidity in Percent < > WIND - Direction (from) and Speed in MPH < > PRES - Mean Sea Level Pressure (inches of Hg) < > WCI - Wind Chill Index < > VSB - VISIBILITY IN MILES < > HX - HEAT INDEX < > TC - TEMPERATURE IN CELSIUS < > VRB - VARIABLE WIND DIRECTION < > < >>>>>>>>>>>>>>>>>>>>>>>>>>>> KEY <<<<<<<<<<<<<<<<<<<<<<<<<<<

USA.gov is the U.S. government's official web portal to all federal, state and local government web resources and services.